TimeEST,TemperatureF,Dew PointF,Humidity,Sea Level PressureIn,VisibilityMPH,Wind Direction,Wind SpeedMPH,Gust SpeedMPH,PrecipitationIn,Events,Conditions,WindDirDegrees,DateUTC
12:15 AM,68.0,-9999,N/A,30.09,0.2,Calm,Calm,-,N/A,Fog,Fog,0,2013-01-03 05:15:00
12:35 AM,68.0,-9999,N/A,30.09,0.2,Calm,Calm,-,N/A,Fog,Fog,0,2013-01-03 05:35:00
12:55 AM,66.2,-9999,N/A,30.09,0.2,Calm,Calm,-,N/A,Fog,Fog,0,2013-01-03 05:55:00
1:15 AM,66.2,-9999,N/A,30.08,0.2,Calm,Calm,-,N/A,Fog,Fog,0,2013-01-03 06:15:00
1:35 AM,66.2,-9999,N/A,30.08,0.2,SE,3.5,-,N/A,Fog,Fog,130,2013-01-03 06:35:00
1:55 AM,66.2,-9999,N/A,30.08,0.2,Calm,Calm,-,N/A,Fog,Fog,0,2013-01-03 06:55:00
2:15 AM,66.2,-9999,N/A,30.08,0.2,Calm,Calm,-,N/A,Fog,Fog,0,2013-01-03 07:15:00
2:35 AM,66.2,-9999,N/A,30.08,0.2,Calm,Calm,-,N/A,Fog,Fog,0,2013-01-03 07:35:00
2:55 AM,66.2,-9999,N/A,30.08,0.2,Calm,Calm,-,N/A,Fog,Fog,0,2013-01-03 07:55:00
3:15 AM,66.2,-9999,N/A,30.08,0.2,Calm,Calm,-,N/A,Fog,Fog,0,2013-01-03 08:15:00
3:35 AM,66.2,-9999,N/A,30.07,0.2,Calm,Calm,-,N/A,Fog,Fog,0,2013-01-03 08:35:00
3:55 AM,66.2,-9999,N/A,30.07,0.2,Calm,Calm,-,N/A,Fog,Fog,0,2013-01-03 08:55:00
4:15 AM,64.4,-9999,N/A,30.07,0.2,Calm,Calm,-,N/A,Fog,Fog,0,2013-01-03 09:15:00
4:35 AM,64.4,-9999,N/A,30.06,0.2,South,3.5,-,N/A,Fog,Fog,170,2013-01-03 09:35:00
4:55 AM,64.4,-9999,N/A,30.07,0.2,South,3.5,-,N/A,Fog,Fog,170,2013-01-03 09:55:00
5:15 AM,64.4,-9999,N/A,30.07,0.2,Calm,Calm,-,N/A,Fog,Fog,0,2013-01-03 10:15:00
5:35 AM,64.4,-9999,N/A,30.07,0.2,Calm,Calm,-,N/A,Fog,Fog,0,2013-01-03 10:35:00
5:55 AM,64.4,-9999,N/A,30.08,0.2,Calm,Calm,-,N/A,Fog,Fog,0,2013-01-03 10:55:00
6:15 AM,64.4,-9999,N/A,30.09,0.2,Calm,Calm,-,N/A,Fog,Fog,0,2013-01-03 11:15:00
6:35 AM,64.4,-9999,N/A,30.10,0.2,Calm,Calm,-,N/A,Fog,Fog,0,2013-01-03 11:35:00
6:55 AM,64.4,-9999,N/A,30.10,0.2,Calm,Calm,-,N/A,Fog,Fog,0,2013-01-03 11:55:00
7:15 AM,64.4,-9999,N/A,30.11,0.2,Calm,Calm,-,N/A,Fog,Fog,0,2013-01-03 12:15:00
7:35 AM,64.4,-9999,N/A,30.11,0.2,Calm,Calm,-,N/A,Fog,Fog,0,2013-01-03 12:35:00
7:55 AM,64.4,-9999,N/A,30.12,0.2,Calm,Calm,-,N/A,Fog,Fog,0,2013-01-03 12:55:00
8:35 AM,64.4,-9999,N/A,30.13,0.2,Calm,Calm,-,N/A,Fog,Fog,0,2013-01-03 13:35:00
8:55 AM,64.4,-9999,N/A,30.13,0.2,Calm,Calm,-,N/A,Fog,Fog,0,2013-01-03 13:55:00
9:15 AM,64.4,-9999,N/A,30.13,0.2,Calm,Calm,-,N/A,Fog,Fog,0,2013-01-03 14:15:00
9:35 AM,66.2,-9999,N/A,30.13,0.2,East,4.6,-,N/A,Fog,Fog,100,2013-01-03 14:35:00
9:55 AM,66.2,-9999,N/A,30.14,0.5,Calm,Calm,-,N/A,Fog,Fog,0,2013-01-03 14:55:00
10:35 AM,66.2,-9999,N/A,30.14,1.8,Calm,Calm,-,N/A,,Overcast,0,2013-01-03 15:35:00
10:55 AM,68.0,-9999,N/A,30.14,3.0,Calm,Calm,-,N/A,,Overcast,0,2013-01-03 15:55:00
11:15 AM,68.0,-9999,N/A,30.13,4.0,SSE,4.6,-,N/A,,Haze,150,2013-01-03 16:15:00
11:35 AM,69.8,-9999,N/A,30.12,4.0,SSE,5.8,-,N/A,,Haze,160,2013-01-03 16:35:00
11:55 AM,69.8,-9999,N/A,30.12,5.0,Calm,Calm,-,N/A,,Haze,0,2013-01-03 16:55:00
12:15 PM,69.8,-9999,N/A,30.10,5.0,Calm,Calm,-,N/A,,Haze,0,2013-01-03 17:15:00
12:35 PM,73.4,-9999,N/A,30.09,7.0,Calm,Calm,-,N/A,,Mostly Cloudy,0,2013-01-03 17:35:00
12:55 PM,75.2,66.2,73,30.07,7.0,SSE,3.5,-,N/A,,Mostly Cloudy,160,2013-01-03 17:55:00
1:15 PM,77.0,64.4,65,30.08,7.0,Calm,Calm,-,N/A,,Mostly Cloudy,0,2013-01-03 18:15:00
1:35 PM,75.2,62.6,65,30.07,10.0,Calm,Calm,-,N/A,,Overcast,0,2013-01-03 18:35:00
1:55 PM,77.0,62.6,61,30.07,10.0,Calm,Calm,-,N/A,,Overcast,0,2013-01-03 18:55:00
2:15 PM,75.2,62.6,65,30.07,10.0,Calm,Calm,-,N/A,,Overcast,0,2013-01-03 19:15:00
2:35 PM,77.0,62.6,61,30.07,10.0,Calm,Calm,-,N/A,,Overcast,0,2013-01-03 19:35:00
2:55 PM,77.0,62.6,61,30.07,10.0,Calm,Calm,-,N/A,,Overcast,0,2013-01-03 19:55:00
3:15 PM,77.0,62.6,61,30.07,10.0,Calm,Calm,-,N/A,,Overcast,0,2013-01-03 20:15:00
3:35 PM,75.2,62.6,65,30.07,10.0,North,4.6,-,N/A,,Overcast,360,2013-01-03 20:35:00
3:55 PM,75.2,64.4,69,30.07,10.0,North,3.5,-,N/A,,Overcast,10,2013-01-03 20:55:00
4:15 PM,75.2,64.4,69,30.08,10.0,North,6.9,-,N/A,,Overcast,360,2013-01-03 21:15:00
4:35 PM,73.4,64.4,73,30.09,10.0,North,5.8,-,N/A,,Overcast,360,2013-01-03 21:35:00
4:55 PM,73.4,66.2,78,30.09,7.0,North,4.6,-,N/A,,Overcast,10,2013-01-03 21:55:00
5:15 PM,71.6,66.2,83,30.10,7.0,North,4.6,-,N/A,,Overcast,360,2013-01-03 22:15:00
5:35 PM,71.6,66.2,83,30.11,5.0,North,5.8,-,N/A,Rain,Light Rain,10,2013-01-03 22:35:00
5:55 PM,69.8,69.8,100,30.11,5.0,NNE,4.6,-,N/A,,Drizzle,30,2013-01-03 22:55:00
6:15 PM,69.8,-9999,N/A,30.12,5.0,NNE,4.6,-,0.01,,Light Drizzle,30,2013-01-03 23:15:00
6:35 PM,68.0,-9999,N/A,30.13,5.0,NE,10.4,-,0.01,,Drizzle,40,2013-01-03 23:35:00
6:55 PM,66.2,-9999,N/A,30.15,4.0,NNE,8.1,-,0.04,Rain,Light Rain,20,2013-01-03 23:55:00
7:15 PM,64.4,-9999,N/A,30.16,5.0,North,5.8,-,0.01,Rain,Light Rain,10,2013-01-04 00:15:00
7:35 PM,64.4,-9999,N/A,30.17,7.0,NNE,8.1,-,0.01,,Drizzle,20,2013-01-04 00:35:00
7:55 PM,62.6,-9999,N/A,30.18,7.0,NNE,6.9,-,0.02,Rain,Rain,20,2013-01-04 00:55:00
8:15 PM,60.8,-9999,N/A,30.19,7.0,NNE,9.2,17.3,N/A,,Overcast,30,2013-01-04 01:15:00
8:35 PM,60.8,-9999,N/A,30.19,7.0,NNE,6.9,-,N/A,,Overcast,30,2013-01-04 01:35:00
8:55 PM,60.8,-9999,N/A,30.19,7.0,NNE,8.1,-,N/A,,Overcast,30,2013-01-04 01:55:00
9:15 PM,60.8,-9999,N/A,30.20,7.0,NE,10.4,-,N/A,,Overcast,40,2013-01-04 02:15:00
9:35 PM,60.8,-9999,N/A,30.20,5.0,NNE,9.2,-,N/A,,Haze,30,2013-01-04 02:35:00
9:55 PM,59.0,-9999,N/A,30.20,7.0,NE,9.2,-,N/A,,Overcast,40,2013-01-04 02:55:00
10:15 PM,59.0,-9999,N/A,30.20,10.0,NE,9.2,17.3,N/A,,Light Drizzle,50,2013-01-04 03:15:00
10:35 PM,59.0,-9999,N/A,30.20,10.0,NE,10.4,-,N/A,,Overcast,50,2013-01-04 03:35:00
10:55 PM,60.8,-9999,N/A,30.20,10.0,NE,9.2,-,N/A,,Overcast,50,2013-01-04 03:55:00
11:15 PM,59.0,-9999,N/A,30.20,5.0,NE,11.5,-,0.03,Rain,Rain,50,2013-01-04 04:15:00
11:35 PM,59.0,-9999,N/A,30.19,5.0,NE,9.2,-,0.05,,Drizzle,50,2013-01-04 04:35:00
11:55 PM,59.0,-9999,N/A,30.18,5.0,ENE,9.2,-,0.06,,Drizzle,60,2013-01-04 04:55:00